COSMOS 1275 DEB, 42115

Orbit data source: Space-Track

COSMOS 1275 DEB, 42115 is space debris in LEO originally from a launch on Thu, 04 Jun 1981 UTC launched from the Plesetsk Missile And Space Complex (PKMTR). Debris objects in space refer to the collection of defunct objects orbiting the Earth. Examples of debris include non-operational satellites, rocket bodies, and fragments generated from explosions, collisions, or faulty payload assembly.

Loading next visibility...
Identifier
42115, 1981-053QB
Orbit
LEO
Country
Flag of CISCIS
Related business
Manufacturer
Unknown
Mission
Spacecraft
Bus & Motor
Unknown
Mass
Unknown
Launch date (UTC)
1981-06-04 (45 years ago)
Launch vehicle
Unknown
Launch site
Plesetsk Missile And Space Complex (PKMTR)
Object type
Payload
Rocket body
Debris
Shape & HBR
Unknown shape, 0.1 m
Radar Cross Section
Small (<0.1 m²)

Expand to show TLE details & history
Last TLE update: 1 day ago

TLE from 1 day ago
0 COSMOS 1275 DEB
1 42115U 81053QB  25352.06770964  .00002185  00000-0  12098-2 0  9994
2 42115  82.6577  26.0775 0061564  91.1564 269.6665 14.09951034617128
Epoch: 2025-12-18T01:37Z
TLE epoch observation values (Epoch: 2025-12-18T01:37:30.112Z)
Latitude
-0.00005°
Longitude
-85.22651°
Altitude
863.014 km
Speed
7.421 km/s
True Right ascension
01h 44m 18s
True Declination
0° 00' 00"
Sunlit
Object was in daylight at epoch
Visualization orbit readout
Latitude
Unknown
Longitude
Unknown
Altitude
Unknown
Speed
Unknown
Apparent Right ascension
Unknown
Apparent Declination
Unknown
Sunlit
N/A
Visualization observer readout
Local Sidereal Time
10:54:07
Azimuth
Unknown
Elevation
Unknown
Doppler factor
Unknown
Orbital elements
Apogee altitude
901.191 km
Perigee altitude
812.111 km
Semi-major axis
7,234.788 km
Eccentricity
0.00616
Inclination
82.6577°
RAAN
26.0775°
Arg. of periapsis
91.1564°
True anomaly
268.96109°
Mean anomaly
269.6665°
Eccentric anomaly
269.31379°
Mean motion
3.52699 °/min
Orbital period
102.07 mins
BSTAR
0.0012098
Loading maneuver chart data...
Computing Atmospheric mass density...
Loading historical data...
Loading historical data...
Loading historical data...
Loading historical data...
Loading historical data...
Loading historical data...
Loading historical data...

Documentation

Showing up to 5 results
|